Simultaneous Nadir Overpasses (SNOs) Predictions

Prediction of SNOs between FY3D and NOAA-19 Satellite Orbit:

Table of predicted SNOs for the next 14.0 days since TLE Epoch: 2/24/2024
Index Date (FY3D) Time (FY3D) Lat,Lon (FY3D) SZA (FY3D ) Date (NOAA-19) Time (NOAA-19) Lat,Lon (NOAA-19) SZA (NOAA-19 ) Distance(km) Time Diff (sec)
1 02/27/2024 17:59:03 -75.79, 88.06 95.90 02/27/2024 17:57:55 -75.80, 85.59 95.81 67.42 68
2 02/27/2024 18:49:57 76.16,-105.92 84.49 02/27/2024 18:48:49 76.14,-105.95 84.48 2.55 68
3 02/27/2024 19:40:42 -76.15, 61.42 95.53 02/27/2024 19:39:45 -76.17, 61.44 95.51 1.95 57
4 02/27/2024 20:31:28 76.16,-131.29 84.46 02/27/2024 20:30:47 76.15,-131.38 84.47 2.44 41
5 02/27/2024 21:22:14 -76.20, 35.88 95.51 02/27/2024 21:21:43 -76.18, 36.00 95.52 3.63 31
6 02/27/2024 22:12:59 76.16,-156.67 84.44 02/27/2024 22:12:45 76.17,-156.82 84.45 3.93 14
7 02/27/2024 23:03:45 -76.20, 10.50 95.54 02/27/2024 23:03:41 -76.20, 10.57 95.54 1.85 4
8 02/27/2024 23:54:31 76.20, 177.79 84.46 02/27/2024 23:54:43 76.18, 177.75 84.44 2.40 12
9 02/28/2024 00:45:16 -76.20, -14.88 95.56 02/28/2024 00:45:39 -76.21, -14.87 95.55 1.87 23
10 02/28/2024 01:36:02 76.20, 152.41 84.43 02/28/2024 01:36:41 76.20, 152.32 84.43 2.36 39
11 02/28/2024 02:26:48 -76.24, -40.42 95.54 02/28/2024 02:27:37 -76.23, -40.30 95.56 3.55 49
12 02/28/2024 03:17:34 76.25, 126.86 84.46 02/28/2024 03:18:39 76.22, 126.89 84.42 3.86 65
13 02/28/2024 04:08:21 -76.33, -66.13 95.47 02/28/2024 04:09:34 -76.29, -65.57 95.54 15.59 73



Historial Predications of SNOs between FY3D and NOAA-19
